Glenwood, MN

12:00 AM CST on February 21, 2017 (GMT -0600)
Glenwood Municipal

Weather History for KGHW - March, 2013

Change the Weather History Date:

Monday, March 18, 2013

  Actual Average Record
Temperature  
Mean Temperature 18 °F -  
Max Temperature 30 °F 38 °F 77 °F (2012)
Min Temperature 6 °F 20 °F -10 °F (1989)
Degree Days  
Heating Degree Days 47    
Moisture  
Dew Point 14 °F    
Average Humidity 89    
Maximum Humidity 100    
Minimum Humidity 79    
Precipitation  
Precipitation 0.01 in - - ()
Sea Level Pressure  
Sea Level Pressure 29.65 in    
Wind  
Wind Speed 26 mph (West)    
Max Wind Speed 36 mph    
Max Gust Speed 43 mph    
Visibility 1 miles    
Events Snow    
Averages and records for this station are not official NWS values.
T = Trace of Precipitation, MM = Missing Value Source: NWS Daily Summary

Daily Weather History Graph

Daily Weather History Graph

Search for Another Location

Airport or City:

Trip Planner

Search our weather history database for the weather conditions in past years. The results will help you decide how hot, cold, wet, or windy it might be!

Date:

Astronomy

Mar. 18, 2013 Rise Set
Actual Time 7:27 AM CDT 7:31 PM CDT
Civil Twilight 6:58 AM CDT 8:01 PM CDT
Nautical Twilight 6:23 AM CDT 8:35 PM CDT
Astronomical Twilight 5:47 AM CDT 9:11 PM CDT
Moon 11:10 AM CDT (3/18) 1:48 AM CDT (3/18)
Length of Visible Light 13h 03m
Length of Day
12h 03m
Waxing Crescent, 41% of the Moon is Illuminated
Mar 18
Waxing Crescent
Mar 19
First Quarter
Mar 27
Full
Apr 2
Last Quarter
Apr 10
New

Hourly Weather History & Observations

Time (CDT) Temp. Windchill Dew Point Humidity Pressure Visibility Wind Dir Wind Speed Gust Speed Precip Events Conditions
12:13 AM 23.0 °F 6.6 °F 21.2 °F 93% 29.64 in 1.2 mi SE 25.3 mph 31.1 mph N/A Snow Light Snow
12:54 AM 24.8 °F 9.6 °F 23.0 °F 93% 29.63 in 1.2 mi SE 23.0 mph 31.1 mph N/A Snow Light Snow
1:13 AM 24.8 °F 9.3 °F 23.0 °F 93% 29.64 in 1.8 mi SE 24.2 mph 31.1 mph N/A Snow Light Snow
1:33 AM 26.6 °F 11.4 °F 24.8 °F 93% 29.63 in 1.8 mi SE 25.3 mph - N/A Snow Light Snow
1:54 AM 26.6 °F 12.0 °F 24.8 °F 93% 29.63 in 2.5 mi SE 23.0 mph - N/A Snow Light Snow
2:13 AM 26.6 °F 12.0 °F 24.8 °F 93% 29.62 in 3.0 mi SSE 23.0 mph - 0.01 in Snow Light Snow
2:33 AM 26.6 °F 12.4 °F 26.6 °F 100% 29.61 in 2.5 mi SSE 21.9 mph 31.1 mph 0.01 in   Overcast
2:54 AM 28.4 °F 14.4 °F 26.6 °F 93% 29.60 in 2.0 mi SSE 23.0 mph - 0.01 in   Overcast
3:13 AM 28.4 °F 14.4 °F 26.6 °F 93% 29.58 in 2.5 mi SSE 23.0 mph 29.9 mph N/A   Overcast
3:33 AM 28.4 °F 14.4 °F 26.6 °F 93% 29.57 in 2.0 mi SSE 23.0 mph 27.6 mph N/A   Overcast
3:54 AM 28.4 °F 14.4 °F 26.6 °F 93% 29.55 in 2.5 mi SSE 23.0 mph - N/A   Overcast
4:13 AM 28.4 °F 14.7 °F 28.4 °F 100% 29.54 in 1.5 mi SSE 21.9 mph 29.9 mph N/A Snow Light Snow
4:33 AM 28.4 °F 15.1 °F 28.4 °F 100% 29.53 in 1.2 mi SSE 20.7 mph 26.5 mph N/A Snow Light Snow
4:53 AM 28.4 °F 14.1 °F 28.4 °F 100% 29.51 in 1.8 mi SSE 24.2 mph - N/A   Overcast
5:13 AM 30.2 °F 16.2 °F 28.4 °F 93% 29.50 in 1.5 mi South 25.3 mph 28.8 mph N/A Snow Light Snow
5:33 AM 30.2 °F 15.9 °F 30.2 °F 100% 29.49 in 1.5 mi South 26.5 mph 33.4 mph N/A   Overcast
5:53 AM 30.2 °F 15.7 °F 28.4 °F 93% 29.49 in 1.5 mi SW 27.6 mph 35.7 mph N/A   Overcast
6:13 AM 26.6 °F 10.3 °F 26.6 °F 100% 29.51 in 1.8 mi WSW 29.9 mph 36.8 mph N/A   Overcast
6:33 AM 24.8 °F 10.3 °F 24.8 °F 100% 29.52 in 3.0 mi WSW 20.7 mph 29.9 mph N/A   Overcast
6:53 AM 23.0 °F 6.0 °F 21.2 °F 93% 29.52 in 2.5 mi WSW 27.6 mph 38.0 mph N/A   Overcast
7:13 AM 21.2 °F 3.5 °F 19.4 °F 93% 29.52 in 3.0 mi WSW 27.6 mph 39.1 mph N/A   Overcast
7:33 AM 21.2 °F 3.9 °F 19.4 °F 93% 29.53 in 3.0 mi WSW 26.5 mph 36.8 mph N/A   Overcast
7:53 AM 17.6 °F -1.3 °F 15.8 °F 93% 29.55 in 1.5 mi West 27.6 mph 32.2 mph N/A   Overcast
8:13 AM 15.8 °F -3.7 °F 14.0 °F 93% 29.57 in 1.2 mi West 27.6 mph 35.7 mph N/A   Overcast
8:33 AM 15.8 °F -3.4 °F 12.2 °F 86% 29.57 in 1.8 mi West 26.5 mph - N/A   Overcast
8:53 AM 15.8 °F -2.3 °F 12.2 °F 86% 29.57 in 1.2 mi West 23.0 mph 31.1 mph N/A Snow Light Snow
9:13 AM 14.0 °F -5.1 °F 10.4 °F 86% 29.58 in 1.0 mi West 24.2 mph 33.4 mph N/A Snow Light Snow
9:33 AM 12.2 °F -8.6 °F 10.4 °F 92% 29.59 in 1.0 mi West 27.6 mph 34.5 mph N/A Snow Light Snow
9:53 AM 12.2 °F -6.3 °F 10.4 °F 92% 29.59 in 1.5 mi West 20.7 mph 29.9 mph N/A Snow Light Snow
10:13 AM 12.2 °F -7.9 °F 10.4 °F 92% 29.60 in 1.5 mi West 25.3 mph 32.2 mph N/A Snow Light Snow
10:33 AM 12.2 °F -7.9 °F 8.6 °F 85% 29.61 in 1.0 mi West 25.3 mph 34.5 mph N/A Snow Light Snow
10:53 AM 12.2 °F -8.6 °F 8.6 °F 85% 29.61 in 0.8 mi West 27.6 mph 35.7 mph N/A Snow Light Snow
11:13 AM 12.2 °F -5.3 °F 8.6 °F 85% 29.62 in 0.8 mi West 18.4 mph 33.4 mph N/A Snow Light Snow
11:34 AM 12.2 °F -8.6 °F 8.6 °F 85% 29.62 in 1.0 mi West 27.6 mph 32.2 mph N/A Snow Light Snow
11:53 AM 12.2 °F -8.6 °F 8.6 °F 85% 29.62 in 0.8 mi West 27.6 mph 36.8 mph N/A Snow Light Snow
12:13 PM 12.2 °F -8.6 °F 8.6 °F 85% 29.63 in 1.0 mi West 27.6 mph 34.5 mph N/A Snow Light Snow
12:34 PM 12.2 °F -8.6 °F 8.6 °F 85% 29.63 in 0.8 mi West 27.6 mph 38.0 mph N/A Snow Light Snow
12:53 PM 14.0 °F -7.1 °F 8.6 °F 79% 29.64 in 0.8 mi West 31.1 mph 36.8 mph N/A Snow Light Snow
1:13 PM 14.0 °F -6.2 °F 8.6 °F 79% 29.64 in 0.8 mi West 27.6 mph 35.7 mph N/A Snow Light Snow
1:33 PM 12.2 °F -7.5 °F 8.6 °F 85% 29.65 in 0.5 mi West 24.2 mph 35.7 mph N/A Snow Light Snow
1:53 PM 14.0 °F -5.5 °F 8.6 °F 79% 29.65 in 0.8 mi West 25.3 mph 38.0 mph N/A Snow Light Snow
2:13 PM 14.0 °F -4.3 °F 8.6 °F 79% 29.65 in 0.8 mi West 21.9 mph 35.7 mph N/A Snow Light Snow
2:33 PM 14.0 °F -5.8 °F 8.6 °F 79% 29.65 in 0.5 mi West 26.5 mph 38.0 mph N/A Snow Light Snow
2:53 PM 14.0 °F -6.5 °F 8.6 °F 79% 29.66 in 0.5 mi West 28.8 mph 36.8 mph N/A Snow Light Snow
3:13 PM 14.0 °F -6.5 °F 8.6 °F 79% 29.66 in 0.5 mi West 28.8 mph 40.3 mph N/A Snow Light Snow
3:33 PM 14.0 °F -7.4 °F 10.4 °F 86% 29.67 in 0.8 mi West 32.2 mph 40.3 mph N/A Snow Light Snow
3:53 PM 14.0 °F -7.7 °F 10.4 °F 86% 29.67 in 0.5 mi WNW 33.4 mph 40.3 mph N/A Snow Light Snow
4:14 PM 14.0 °F -7.1 °F 10.4 °F 86% 29.68 in 0.5 mi West 31.1 mph 38.0 mph N/A Snow Light Snow
4:33 PM 14.0 °F -6.5 °F 10.4 °F 86% 29.69 in 0.5 mi WNW 28.8 mph 36.8 mph N/A Snow Light Snow
4:53 PM 14.0 °F -7.1 °F 10.4 °F 86% 29.69 in 0.5 mi West 31.1 mph 41.4 mph N/A Snow Light Snow
5:14 PM 14.0 °F -6.8 °F 10.4 °F 86% 29.71 in 0.5 mi West 29.9 mph 38.0 mph N/A Snow Light Snow
5:33 PM 12.2 °F -10.2 °F 8.6 °F 85% 29.72 in 0.2 mi WNW 33.4 mph 40.3 mph N/A Snow Light Snow
5:53 PM 12.2 °F -9.9 °F 10.4 °F 92% 29.72 in 0.5 mi WNW 32.2 mph 39.1 mph N/A Snow Light Snow
6:13 PM 12.2 °F -10.8 °F 8.6 °F 85% 29.73 in 0.5 mi WNW 35.7 mph 42.6 mph N/A Snow Light Snow
6:33 PM 12.2 °F -8.9 °F 8.6 °F 85% 29.74 in 0.8 mi WNW 28.8 mph 35.7 mph N/A Snow Light Snow
6:53 PM 12.2 °F -10.5 °F 8.6 °F 85% 29.75 in 0.5 mi WNW 34.5 mph 40.3 mph N/A Snow Light Snow
7:13 PM 10.4 °F -11.4 °F 8.6 °F 92% 29.77 in 0.8 mi WNW 28.8 mph 34.5 mph N/A Snow Light Snow
7:33 PM 10.4 °F -12.3 °F 8.6 °F 92% 29.77 in 0.8 mi WNW 32.2 mph 39.1 mph N/A Snow Light Snow
7:53 PM 10.4 °F -11.4 °F 8.6 °F 92% 29.79 in 1.2 mi WNW 28.8 mph 39.1 mph N/A Snow Light Snow
8:13 PM 10.4 °F -12.7 °F 6.8 °F 85% 29.80 in 1.2 mi WNW 33.4 mph 39.1 mph N/A Snow Light Snow
8:33 PM 10.4 °F -12.7 °F 6.8 °F 85% 29.80 in 1.0 mi WNW 33.4 mph 39.1 mph N/A Snow Light Snow
8:53 PM 10.4 °F -12.0 °F 6.8 °F 85% 29.81 in 1.5 mi WNW 31.1 mph 38.0 mph N/A Snow Light Snow
9:13 PM 10.4 °F -11.0 °F 6.8 °F 85% 29.82 in 2.0 mi WNW 27.6 mph 32.2 mph N/A Snow Light Snow
9:33 PM 8.6 °F -13.8 °F 5.0 °F 85% 29.83 in 2.0 mi WNW 28.8 mph 34.5 mph N/A Snow Light Snow
9:54 PM 8.6 °F -13.8 °F 5.0 °F 85% 29.83 in 2.5 mi WNW 28.8 mph 34.5 mph N/A Snow Light Snow
10:13 PM 8.6 °F -12.7 °F 5.0 °F 85% 29.85 in 3.0 mi WNW 25.3 mph 33.4 mph N/A   Overcast
10:33 PM 8.6 °F -13.1 °F 3.2 °F 79% 29.85 in 2.5 mi WNW 26.5 mph 32.2 mph N/A   Overcast
10:54 PM 6.8 °F -15.9 °F 3.2 °F 85% 29.86 in 2.5 mi WNW 27.6 mph 33.4 mph N/A   Overcast
11:13 PM 6.8 °F -15.1 °F 3.2 °F 85% 29.87 in 3.0 mi WNW 25.3 mph - N/A   Overcast
11:33 PM 6.8 °F -15.1 °F 3.2 °F 85% 29.87 in 3.0 mi WNW 25.3 mph 28.8 mph N/A   Overcast